User: anonymous   Login
Location: Unspecified
(0.0000°N, 0.0000°E)
Time: 05:28:07
(UTC+02:00)
Language:

YAOGAN 3 - Orbit

View from above orbital plane
View from above orbital plane
View from above satellite
View from above satellite

Ground track
Ground track

The orbit data is extracted from the following two-line orbital elements,

1 32289U 07055A   17175.60619322 -.00000067 +00000-0 -18304-5 0  9997
2 32289 097.9985 177.5383 0001094 082.3340 277.7978 14.80818349519830
Epoch (UTC): 24 June 2017 14:32:55
Eccentricity: 0.0001094
inclination: 97.9985°
perigee height: 626 km
apogee height: 627 km
right ascension of ascending node: 177.5383°
argument of perigee: 82.3340°
revolutions per day: 14.80818349
mean anomaly at epoch: 277.7978°
orbit number at epoch: 51983

The dashed part of the orbit path shows where the satellite is in the earth's shadow,  

DLR